Regional Weather Roundup
Issued by NWS Grand Forks, ND

Home | Current Version | Previous Version | Graphics & Text | Print | Product List | Glossary On
Versions: 1 2 3 4 5 6 7 8 9 10 11 12 13 14 15 16 17 18 19 20 21 22 23 24 25 26 27 28 29 30 31 32 33 34 35 36 37 38 39 40 41 42 43 44 45 46 47 48 49 50
000
ASUS43 KFGF 140910
RWRFGF
PRAIRIE TO PINES  WEATHER ROUNDUP
NATIONAL WEATHER SERVICE EASTERN NORTH DAKOTA/GRAND FORKS ND
300 AM CST THU DEC 14 2017

 **SATELLITE DATA USED TO AUGMENT SKY COVER AT AUTOMATED STATIONS**
 *****  WEATHER ACROSS EASTERN NORTH DAKOTA  *****

CITY           SKY/WX    TMP DP  RH WIND       PRES   REMARKS
GRAND FORKS    CLOUDY    17  14  88 S5        29.99S WCI  10
GRAND FRKS AFB CLOUDY    18  14  86 SW5       29.99R WCI  11
GRAND FRKS NWS   N/A     16 N/A N/A N1          N/A
DEVILS LAKE    FLURRIES  21  19  92 SE6       29.96R WCI  13
FARGO          CLOUDY    19  15  84 CALM      30.01R
WAHPETON ARPT    N/A     19  14  79 CALM      30.01S
$$

 ***** WEATHER ACROSS CENTRAL AND WESTERN NORTH DAKOTA  *****

CITY           SKY/WX    TMP DP  RH WIND       PRES   REMARKS
BISMARCK       CLOUDY    28  24  85 W3        29.98R
MINOT          CLOUDY    33  28  81 W13       29.94S WCI  24
JAMESTOWN      CLOUDY    26  25  96 E5        29.95R WCI  20
MINOT AFB      CLOUDY    32  28  86 NW12      29.94R WCI  23
GARRISON         N/A     33  30  88 NW15      29.95S WCI  23
WILLISTON      CLOUDY    34  27  75 N22G32    30.04R WCI  22
DICKINSON      LGT SNOW  32  30  92 NW16      29.97S FOG     WCI  21
HETTINGER      CLOUDY    33  26  75 NW18G28   30.00S WCI  22
$$

 *****  OTHER AIRPORT OBSERVATIONS IN OUR AREA  *****

CITY           SKY/WX    TMP DP  RH WIND       PRES   REMARKS
WALHALLA       FAIR      19  19 100 NW6       29.98R WCI  11
GRAFTON AIRPOR CLOUDY    18  16  93 SW7       30.01S WCI   8
VALLEY CITY AR CLOUDY    21  21 100 CALM      29.98S
CANDO          CLOUDY    23  23 100 S5        29.97R WCI  17
CAVALIER APRT  FLURRIES  18  16  93 W5        29.98R WCI  11
GWINNER          N/A     21  19  93 CALM      29.98S
SHEYENNE NWR     N/A     20  17  86 CALM      29.95S
ROLLA          CLOUDY    23  23 100 SW5       29.92S WCI  17
 ***** THE ABOVE OBSERVATIONS ARE NON NWS ARE NOT QUALITY
       CONTROLLED AND MAY MIS-REPORT RAIN FOR SNOW...
$$

  *****  WEATHER ACROSS NORTHERN MINNESOTA  *****

CITY           SKY/WX    TMP DP  RH WIND       PRES   REMARKS
FLAG ISLAND    FLURRIES  10   7  85 W5        29.93S WCI   2
WARROAD        LGT SNOW  10   7  85 CALM      29.94S
ROSEAU         LGT SNOW  12   9  85 SW3       29.95S
HALLOCK        CLOUDY    18  14  86 W8        29.98R WCI   7
THF RVR FALLS  FLURRIES  13  10  88 SW3       29.98R
BAUDETTE       CLOUDY     8   5  87 W5        29.93F WCI   0
WASKISH        FLURRIES  12  10  92 W8        29.95S WCI   1
CROOKSTON      CLOUDY    16  12  86 NW9       30.01S WCI   4
STEPHEN NDAWN    N/A     16  12  86 SW3         N/A
GREENBUSH NDAW   N/A     12  10  92 SW6         N/A  WCI   3
$$
  *****  WEATHER ACROSS CENTRAL AND WEST MINNESOTA  *****

CITY           SKY/WX    TMP DP  RH WIND       PRES   REMARKS
FOSSTON        FLURRIES  12  10  92 W5        29.97R WCI   4
BEMIDJI        LGT SNOW  11   8  87 W3        29.94F
PARK RAPIDS    CLOUDY    13  10  88 W8        29.95R WCI   2
ELBOW LAKE     CLOUDY    16  13  90 NW8       30.00R WCI   5
WADENA         CLOUDY    16  10  79 W3        29.97R
DETROIT LAKES  FLURRIES  18  14  86 NW5       29.98R WCI  11
MOORHEAD       MIX PCPN  18  12  79 CALM      30.02S
FERGUS FALLS   CLOUDY    16  12  86 NW7       30.03R WCI   6
MORRIS MN      CLOUDY    19  16  86 NW8       29.98F WCI   9
STAPLES        FLURRIES  14  10  85 CALM      29.97R
$$
  *****  WEATHER ELSEWHERE ACROSS MINNESOTA  *****

CITY           SKY/WX    TMP DP  RH WIND       PRES   REMARKS
DULUTH         CLOUDY     9   7  92 NW6       29.92R WCI  -1
INTRNTL FALLS  CLOUDY    13  10  88 W5        29.93R WCI   5
ELY            FLURRIES  10   9  92 CALM      29.90R
CLOQUET        CLOUDY     9   5  85 W3        29.94R
WHEATON        CLOUDY    19  16  86 N5        30.02F WCI  13
BRAINERD       CLOUDY    16  11  80 NW6       29.98R WCI   7
HIBBING        LGT SNOW  14  11  87 CALM      29.92R FOG
ALEXANDRIA     CLOUDY    18  14  84 NW8       29.96F WCI   8
SAINT CLOUD    CLOUDY    14  11  87 NW7       30.01R WCI   4
MINNEAPOLIS    CLOUDY    20  16  84 W6        30.01R WCI  12
$$

  *****  WEATHER ACROSS SOUTH DAKOTA  *****

CITY           SKY/WX    TMP DP  RH WIND       PRES   REMARKS
SIOUX FALLS    CLOUDY    29  26  89 CALM      29.99R
BROOKINGS      CLOUDY    25  24  96 CALM      29.97S
WATERTOWN      CLOUDY    25  24  96 NW5       29.95S WCI  19
HURON          CLOUDY    33  27  78 W6        29.99R
SISSETON         N/A     21  18  88 CALM      29.98F
ABERDEEN       CLOUDY    27  27 100 CALM      29.99R
MITCHELL       CLOUDY    34  27  75 W9        30.01R
PIERRE         MOCLDY    30  26  85 W7        30.01S WCI  23
MOBRIDGE       MOCLDY    24  20  84 CALM      29.96F
RAPID CITY     CLOUDY    39  25  57 NW21G29   30.05F
$$

  *****  SOME WEATHER IN NEARBY STATES *****

CITY           SKY/WX    TMP DP  RH WIND       PRES   REMARKS
GLASGOW MT     CLOUDY    32  26  78 NW16      30.20R WCI  21
GREAT FALLS MT CLOUDY    30  22  72 W7        30.39S WCI  23
CHEYENNE WY    CLOUDY    27  24  89 N15       30.14S WCI  15
SCOTTSBLUFF NE CLOUDY    36  22  56 NW13      30.14S
OMAHA NE       CLOUDY    36  25  64 N9        30.02R
DES MOINES IA  CLOUDY    27  17  66 N12       30.00R WCI  17
DAVENPORT IA   CLOUDY    23  14  68 N8        29.99R WCI  14
CHICAGO IL     FAIR      20  12  71 N12       29.90R WCI   8
EAU CLAIRE WI  FAIR       4   2  91 W3        29.98R
LA CROSSE WI   FAIR      11   9  92 CALM      30.01R
$$

  *****  SOME NATIONAL WEATHER *****

CITY           SKY/WX    TMP DP  RH WIND       PRES   REMARKS
LA GUARDIA NY  CLOUDY    25  21  85 E6        29.56F WCI  18
RALEIGH NC     MOCLDY    35  20  54 SW9       29.69F
ATLANTA GA     FAIR      40  28  62 W7        29.85S
NEW ORLEANS LA CLOUDY    46  44  93 CALM      29.98S
OKLAHOMA CITY  FAIR      37  24  59 N8        29.99R
ALBUQUERQUE NM FAIR      30   7  37 CALM      30.00S
SALT LAKE CITY FAIR      26  24  92 N6        30.31R FOG     WCI  19
LOS ANGELES CA FAIR      56  37  49 E7        29.96S
BOISE ID       CLOUDY    25  22  88 SE8       30.49R WCI  16
SEATTLE WA     MOCLDY    40  38  93 NE7       30.38F
$$

*** WEATHER ACROSS MANITOBA...SASKATCHEWAN AND ONTARIO ***
                ***ONTARIO***

CITY           SKY/WX    TMP DP  RH WIND       PRES   REMARKS
GERALDTON      FLURRIES  -9 -13  84 NW3       29.85S
THUNDER BAY    PTCLDY    -4  -8  84 NW5       29.96R WCI -15
SIOUX LOOKOUT  PTCLDY   -11 -17  77 S3        29.88S
TORONTO        PTCLDY     7   0  72 N16G23    29.67R WCI -11
BIG TROUT LK   PTCLDY   -24 -29  76 W5        29.87F WCI -38
PICKLE LAKE    NOT AVBL
DRYDEN         FLURRIES   1  -2  85 W2        29.88S
KENORA         CLOUDY     5   1  85 SW3       29.89F FOG
$$
                *** MANITOBA***

CITY           SKY/WX    TMP DP  RH WIND       PRES   REMARKS
BRANDON        FLURRIES  19  16  86 N5        29.97R WCI  13
DAUPHIN        FLURRIES  19  18  93 N8        30.02R WCI   9
ISLAND LAKE    CLOUDY     5   0  78 NW6       29.93R WCI  -6
PILOT MOUND      N/A     19  18  93 SW5         N/A  WCI  13
THE PAS        FLURRIES  18  12  79 N10G18    30.05R WCI   6
THOMPSON       FLURRIES  -2  -6  84 NW5       30.00R WCI -12
WINNIPEG       FLURRIES  14  12  92 W8        29.98R WCI   3
LYNN LAKE      CLOUDY     5   3  92 NW6       30.01R WCI  -6
CHURCHILL      LGT SNOW  -9 -15  77 NW15G23   30.05S DRFTSNOWWCI -31
GILLAM         FLURRIES  -4  -8  84 N12G17    29.99R WCI -22
$$
                ***SASKATCHEWAN***

CITY           SKY/WX    TMP DP  RH WIND       PRES   REMARKS
ESTEVAN        FLURRIES  30  27  86 NW15      30.01R WCI  19
KINDERSLEY     MOCLDY    28  25  86 NW9       30.23S WCI  20
LLOYDMINSTER   CLEAR     27  25  93 W13       30.22S WCI  16
PRINCE ALBERT  MOCLDY    30  25  80 W9        30.14R WCI  22
REGINA         CLOUDY    30  25  80 N15       30.10R WCI  19
YORKTON        CLOUDY    27  23  86 N10       30.02R WCI  17
N. BATTLEFORD  CLEAR     28  25  86 W9        30.22R WCI  20
LA RONGE       FLURRIES  27  23  86 NW10G18   30.09S WCI  17
SASKATOON      MOCLDY    27  25  93 W13       30.18R WCI  16
SWIFT CURRENT  CLOUDY    30  27  86 NW13G18   30.19R WCI  20
$$
NOTE: THESE ARE AUTOMATED STATIONS WITH LIMITED QUALITY CONTROL
      "FAIR" INDICATES FEW OR NO CLOUDS BELOW 12,000 FEET WITH NO
      SIGNIFICANT WEATHER AND/OR OBSTRUCTIONS TO VISIBILITY.
      SKY/WX - SKY CONDITION AND SIGNIFICANT WEATHER.
      TMP - AIR TEMPERATURE.    DP   - DEWPOINT TEMPERATURE.
      RH  - RELATIVE HUMIDITY.  PRES - PRESSURE.
      HX  - HEAT INDEX.         WCI  - WIND CHILL INDEX.
$



USA.gov is the U.S. government's official web portal to all federal, state and local government web resources and services.